KQ4UWH Weather Reports


time (UTC)temp
C
wind
direction
speed
KPH
gust
KPH
rain 1hr
cm
rain 24hr
cm
rain mn
cm
humidity
%
barometer
mb
20260506134447 20 169 3.2 3.2 0.00 0.00 0.00 85 1239.7
20260506133944 20 137 3.2 3.2 0.00 0.00 0.00 86 1239.7
20260506133441 20 178 4.8 4.8 0.00 0.00 0.00 86 1239.7
20260506132938 19 197 6.4 6.4 0.00 0.00 0.00 86 1239.7
20260506132435 19 187 3.2 4.8 0.00 0.00 0.00 87 1239.7
20260506131932 19 175 3.2 4.8 0.00 0.00 0.00 87 1239.7
20260506131429 19 125 1.6 1.6 0.00 0.00 0.00 88 1239.7
20260506130926 19 131 0.0 1.6 0.00 0.00 0.00 88 1239.7
20260506130422 19 171 3.2 3.2 0.00 0.00 0.00 88 1239.7
20260506125920 19 134 1.6 1.6 0.00 0.00 0.00 88 1239.7
20260506125418 18 178 3.2 3.2 0.00 0.00 0.00 88 1239.7
20260506124916 18 190 4.8 4.8 0.00 0.00 0.00 88 1239.7
20260506124413 18 136 1.6 1.6 0.00 0.00 0.00 89 1239.7
20260506123911 18 169 3.2 3.2 0.00 0.00 0.00 89 1239.7
20260506123409 18 160 3.2 3.2 0.00 0.00 0.00 89 1239.7
20260506122906 18 134 1.6 3.2 0.00 0.00 0.00 89 1239.7
20260506122403 18 151 1.6 3.2 0.00 0.00 0.00 89 1239.7
20260506121901 18 137 3.2 3.2 0.00 0.00 0.00 89 1239.7
20260506121358 18 140 1.6 1.6 0.00 0.00 0.00 89 1239.7
20260506120855 18 133 3.2 3.2 0.00 0.00 0.00 89 1239.7
20260506120352 18 178 3.2 3.2 0.00 0.00 0.00 88 1239.7
20260506115850 18 156 1.6 3.2 0.00 0.00 0.00 88 1239.7
20260506115348 18 132 0.0 0.0 0.00 0.00 0.00 88 1239.7
20260506114845 18 127 1.6 1.6 0.00 0.00 0.00 88 1239.7
20260506114343 18 160 3.2 3.2 0.00 0.00 0.00 89 1239.7
20260506113842 18 130 1.6 1.6 0.00 0.00 0.00 89 1239.7
20260506113338 18 147 1.6 3.2 0.00 0.00 0.00 89 1239.7
20260506112835 18 139 1.6 1.6 0.00 0.00 0.00 89 1239.7
20260506112332 17 135 1.6 3.2 0.00 0.00 0.00 89 1239.7
20260506111829 17 130 1.6 1.6 0.00 0.00 0.00 89 1239.7
20260506111328 17 128 1.6 1.6 0.00 0.00 0.00 89 1239.7
20260506110825 17 136 1.6 1.6 0.00 0.00 0.00 89 1239.7
20260506110322 17 153 3.2 3.2 0.00 0.00 0.00 89 1239.7
20260506105819 17 129 0.0 0.0 0.00 0.00 0.00 89 1239.7
20260506105315 17 129 0.0 0.0 0.00 0.00 0.00 89 1239.7
20260506104813 17 139 1.6 1.6 0.00 0.00 0.00 89 1239.7
20260506104310 17 131 0.0 0.0 0.00 0.00 0.00 88 1239.7
20260506103808 17 148 3.2 3.2 0.00 0.00 0.00 88 1239.7
20260506103305 17 146 0.0 0.0 0.00 0.00 0.00 88 1239.7
20260506102803 17 129 0.0 0.0 0.00 0.00 0.00 88 1239.7
20260506102300 17 126 0.0 0.0 0.00 0.00 0.00 88 1239.7
20260506101758 17 131 1.6 3.2 0.00 0.00 0.00 88 1239.7
20260506101253 17 125 0.0 1.6 0.00 0.00 0.00 87 1239.7
20260506100751 17 151 3.2 3.2 0.00 0.00 0.00 87 1239.7
20260506100249 18 151 1.6 3.2 0.00 0.00 0.00 87 1239.7
20260506095748 18 143 1.6 3.2 0.00 0.00 0.00 87 1239.7
20260506095244 18 122 1.6 1.6 0.00 0.00 0.00 87 1239.7
20260506094741 18 140 3.2 3.2 0.00 0.00 0.00 87 1239.7
20260506094239 18 148 1.6 1.6 0.00 0.00 0.00 86 1239.7
20260506093738 18 159 1.6 3.2 0.00 0.00 0.00 86 1239.7
20260506093234 18 152 0.0 0.0 0.00 0.00 0.00 86 1239.7
20260506092732 18 117 0.0 0.0 0.00 0.00 0.00 86 1239.7
20260506092230 18 120 0.0 0.0 0.00 0.00 0.00 86 1239.7
20260506091727 18 127 0.0 0.0 0.00 0.00 0.00 85 1239.7
20260506091224 18 118 0.0 0.0 0.00 0.00 0.00 85 1239.7
20260506090722 18 121 0.0 0.0 0.00 0.00 0.00 85 1239.7
20260506090219 18 121 0.0 0.0 0.00 0.00 0.00 85 1239.7
20260506085716 18 122 0.0 0.0 0.00 0.00 0.00 84 1239.7
20260506085212 18 127 0.0 0.0 0.00 0.00 0.00 84 1239.7
20260506084709 18 138 0.0 0.0 0.00 0.00 0.00 84 1239.7
20260506084205 18 126 1.6 1.6 0.00 0.00 0.00 84 1239.7
20260506083702 18 143 3.2 3.2 0.00 0.00 0.00 83 1239.7
20260506083200 18 117 0.0 0.0 0.00 0.00 0.00 82 1239.7
20260506082657 18 118 0.0 0.0 0.00 0.00 0.00 82 1239.7
20260506082156 18 117 0.0 0.0 0.00 0.00 0.00 81 1239.7
20260506081654 18 114 0.0 0.0 0.00 0.00 0.00 81 1239.7
20260506081152 18 119 0.0 0.0 0.00 0.00 0.00 80 1239.7
20260506080650 18 144 3.2 3.2 0.00 0.00 0.00 80 1239.7
20260506080146 18 122 0.0 1.6 0.00 0.00 0.00 80 1239.7
20260506073130 18 117 0.0 0.0 0.00 0.00 0.00 78 1239.7
20260506072626 18 120 0.0 0.0 0.00 0.00 0.00 78 1239.7
20260506072125 18 120 0.0 0.0 0.00 0.00 0.00 77 1239.7
20260506071622 18 119 0.0 0.0 0.00 0.00 0.00 77 1239.7
20260506071119 18 115 0.0 0.0 0.00 0.00 0.00 77 1239.7
20260506070616 18 124 0.0 0.0 0.00 0.00 0.00 77 1239.7
20260506070114 18 115 0.0 0.0 0.00 0.00 0.00 77 1239.7
20260506062050 18 123 0.0 0.0 0.00 0.00 0.00 74 1239.7
20260506061546 18 118 0.0 0.0 0.00 0.00 0.00 73 1239.7
20260506061044 18 114 0.0 0.0 0.00 0.00 0.00 72 1239.7
20260506060543 18 117 0.0 0.0 0.00 0.00 0.00 72 1239.7
20260506051011 20 166 3.2 3.2 0.00 0.00 0.00 66 1239.7
20260506050509 20 149 3.2 3.2 0.00 0.00 0.00 65 1239.7
20260506044959 20 136 1.6 1.6 0.00 0.00 0.00 63 1239.7
20260506044457 20 160 0.0 0.0 0.00 0.00 0.00 63 1239.7
20260506043954 20 120 0.0 0.0 0.00 0.00 0.00 61 1239.7
20260506043451 20 118 0.0 0.0 0.00 0.00 0.00 61 1239.7
20260506042949 20 129 3.2 3.2 0.00 0.00 0.00 60 1239.7
20260506042448 20 153 1.6 3.2 0.00 0.00 0.00 61 1239.7
20260506041946 20 130 0.0 0.0 0.00 0.00 0.00 60 1239.7
20260506041444 20 124 0.0 0.0 0.00 0.00 0.00 60 1239.7
20260506040941 20 126 1.6 3.2 0.00 0.00 0.00 59 1239.7
20260506040438 20 121 0.0 0.0 0.00 0.00 0.00 58 1239.7
20260506035934 20 117 0.0 0.0 0.00 0.00 0.00 59 1239.7
20260506035432 20 129 0.0 0.0 0.00 0.00 0.00 58 1239.7
20260506034928 20 132 0.0 0.0 0.00 0.00 0.00 58 1239.7
20260506034425 20 110 0.0 0.0 0.00 0.00 0.00 58 1239.7
20260506033922 20 119 0.0 1.6 0.00 0.00 0.00 56 1239.7
20260506033420 20 120 1.6 1.6 0.00 0.00 0.00 56 1239.7
20260506032916 20 131 0.0 0.0 0.00 0.00 0.00 56 1239.7
20260506032413 20 129 0.0 0.0 0.00 0.00 0.00 57 1239.7
20260506031910 20 120 0.0 0.0 0.00 0.00 0.00 57 1239.7
20260506031407 20 125 0.0 0.0 0.00 0.00 0.00 57 1239.7
20260506030905 20 123 0.0 0.0 0.00 0.00 0.00 58 1239.7
20260506030403 20 115 0.0 0.0 0.00 0.00 0.00 58 1239.7
20260506025859 20 117 0.0 0.0 0.00 0.00 0.00 58 1239.7
20260506025356 20 119 0.0 0.0 0.00 0.00 0.00 58 1239.7
20260506024853 20 115 0.0 0.0 0.00 0.00 0.00 57 1239.7
20260506024350 20 119 0.0 0.0 0.00 0.00 0.00 56 1239.7
20260506023846 20 119 0.0 0.0 0.00 0.00 0.00 57 1239.7
20260506023343 20 119 0.0 0.0 0.00 0.00 0.00 56 1239.7
20260506022840 20 118 0.0 0.0 0.00 0.00 0.00 56 1239.7
20260506022337 20 118 0.0 0.0 0.00 0.00 0.00 55 1239.7
20260506021835 20 109 0.0 0.0 0.00 0.00 0.00 55 1239.7
20260506021332 20 119 0.0 0.0 0.00 0.00 0.00 55 1239.7
20260506020828 20 120 0.0 0.0 0.00 0.00 0.00 54 1239.7
20260506020327 20 120 0.0 0.0 0.00 0.00 0.00 53 1239.7
20260506015824 20 119 0.0 0.0 0.00 0.00 0.00 53 1239.7
20260506015321 20 119 0.0 0.0 0.00 0.00 0.00 52 1239.7
20260506014818 20 118 0.0 0.0 0.00 0.00 0.00 52 1239.7
20260506014315 20 119 0.0 0.0 0.00 0.00 0.00 52 1239.7
20260506013811 20 118 0.0 0.0 0.00 0.00 0.00 51 1239.7
20260506013309 20 117 0.0 0.0 0.00 0.00 0.00 52 1239.7
20260506012805 20 118 0.0 0.0 0.00 0.00 0.00 52 1239.7
20260506012307 20 119 0.0 0.0 0.00 0.00 0.00 52 1239.7
20260506011759 20 118 0.0 0.0 0.00 0.00 0.00 51 1239.7
20260506011256 20 118 0.0 0.0 0.00 0.00 0.00 50 1239.7
20260506010754 20 118 0.0 0.0 0.00 0.00 0.00 50 1239.7
20260506010251 20 117 0.0 0.0 0.00 0.00 0.00 49 1239.7
20260506005748 20 113 0.0 0.0 0.00 0.00 0.00 50 1239.7
20260506005245 20 117 0.0 0.0 0.00 0.00 0.00 50 1239.7
20260506004740 20 115 0.0 0.0 0.00 0.00 0.00 47 1239.7
20260506004239 21 114 0.0 0.0 0.00 0.00 0.00 48 1239.7
20260506003734 21 112 0.0 0.0 0.00 0.00 0.00 46 1239.7
20260506003231 21 111 0.0 0.0 0.00 0.00 0.00 45 1239.7
20260506002727 22 115 0.0 0.0 0.00 0.00 0.00 44 1239.7
20260506002223 22 118 0.0 0.0 0.00 0.00 0.00 43 1239.7
20260506001719 22 119 0.0 0.0 0.00 0.00 0.00 43 1239.7
20260506001217 22 110 0.0 0.0 0.00 0.00 0.00 42 1239.7
20260506000714 22 118 0.0 0.0 0.00 0.00 0.00 41 1239.7
20260506000212 22 120 0.0 0.0 0.00 0.00 0.00 41 1239.7
20260505235708 22 120 0.0 0.0 0.00 0.00 0.00 40 1239.7
20260505235206 22 130 0.0 0.0 0.00 0.00 0.00 40 1239.7
20260505234703 23 122 0.0 0.0 0.00 0.00 0.00 40 1239.7
20260505234200 23 126 0.0 0.0 0.00 0.00 0.00 39 1239.7
20260505233656 23 126 0.0 0.0 0.00 0.00 0.00 39 1239.7
20260505233154 23 112 0.0 0.0 0.00 0.00 0.00 39 1239.7
20260505232652 23 116 1.6 1.6 0.00 0.00 0.00 38 1239.7
20260505232149 23 127 0.0 0.0 0.00 0.00 0.00 38 1239.7
20260505231645 24 127 0.0 0.0 0.00 0.00 0.00 37 1239.7
20260505231145 24 141 1.6 3.2 0.00 0.00 0.00 38 1239.7
20260505230642 24 119 3.2 3.2 0.00 0.00 0.00 39 1239.7
20260505230138 25 109 1.6 3.2 0.00 0.00 0.00 39 1239.7
20260505225634 25 200 4.8 4.8 0.00 0.00 0.00 38 1239.7
20260505225131 25 135 0.0 0.0 0.00 0.00 0.00 40 1239.7
20260505224628 25 123 0.0 0.0 0.00 0.00 0.00 39 1239.7
20260505224125 25 140 1.6 3.2 0.00 0.00 0.00 37 1239.7
20260505223622 26 166 3.2 3.2 0.00 0.00 0.00 36 1239.7
20260505223119 26 132 1.6 1.6 0.00 0.00 0.00 34 1239.7
20260505222615 26 123 0.0 0.0 0.00 0.00 0.00 35 1239.7
20260505222111 26 125 1.6 1.6 0.00 0.00 0.00 35 1239.7
20260505221608 26 132 3.2 3.2 0.00 0.00 0.00 36 1239.7
20260505221105 26 193 0.0 0.0 0.00 0.00 0.00 35 1239.7
20260505220602 26 103 3.2 3.2 0.00 0.00 0.00 34 1239.7
20260505220100 27 182 6.4 9.7 0.00 0.00 0.00 33 1239.7
20260505215558 26 102 0.0 0.0 0.00 0.00 0.00 35 1239.7
20260505215055 26 202 4.8 6.4 0.00 0.00 0.00 34 1239.7
20260505214554 26 111 3.2 3.2 0.00 0.00 0.00 33 1239.7
20260505214050 26 177 4.8 4.8 0.00 0.00 0.00 35 1239.7
20260505213548 27 190 4.8 6.4 0.00 0.00 0.00 32 1239.7
20260505213043 27 162 4.8 6.4 0.00 0.00 0.00 32 1239.7
20260505212540 27 113 0.0 1.6 0.00 0.00 0.00 32 1239.7
20260505212038 27 155 1.6 3.2 0.00 0.00 0.00 32 1239.7
20260505211535 27 85 0.0 0.0 0.00 0.00 0.00 32 1239.7
20260505211031 27 166 3.2 4.8 0.00 0.00 0.00 32 1239.7
20260505210528 27 113 3.2 3.2 0.00 0.00 0.00 34 1239.7
20260505210020 27 193 3.2 4.8 0.00 0.00 0.00 33 1239.7
20260505205518 27 137 3.2 4.8 0.00 0.00 0.00 32 1239.7
20260505205015 27 128 3.2 3.2 0.00 0.00 0.00 34 1239.7
20260505204513 27 168 3.2 3.2 0.00 0.00 0.00 34 1239.7
20260505204009 27 126 0.0 0.0 0.00 0.00 0.00 32 1239.7
20260505203505 27 133 0.0 1.6 0.00 0.00 0.00 32 1239.7
20260505203003 27 174 1.6 4.8 0.00 0.00 0.00 32 1239.7
20260505202459 27 133 0.0 1.6 0.00 0.00 0.00 33 1239.7
20260505201955 27 168 3.2 4.8 0.00 0.00 0.00 35 1239.7
20260505201452 27 191 6.4 6.4 0.00 0.00 0.00 33 1239.7
20260505200950 27 130 3.2 3.2 0.00 0.00 0.00 37 1239.7
20260505200448 26 100 1.6 3.2 0.00 0.00 0.00 32 1239.7
20260505195943 26 149 0.0 0.0 0.00 0.00 0.00 33 1239.7
20260505195440 27 180 4.8 4.8 0.00 0.00 0.00 33 1239.7
20260505194938 27 243 0.0 0.0 0.00 0.00 0.00 34 1239.7
20260505194435 27 60 3.2 3.2 0.00 0.00 0.00 33 1239.7
20260505193934 27 133 1.6 3.2 0.00 0.00 0.00 34 1239.7
20260505193432 26 115 0.0 1.6 0.00 0.00 0.00 34 1239.7
20260505192930 26 205 6.4 9.7 0.00 0.00 0.00 35 1239.7
20260505192428 26 141 3.2 3.2 0.00 0.00 0.00 38 1239.7
20260505191926 26 215 4.8 4.8 0.00 0.00 0.00 35 1239.7
20260505191424 26 240 6.4 9.7 0.00 0.00 0.00 35 1239.7
20260505190921 26 154 0.0 1.6 0.00 0.00 0.00 35 1239.7
20260505190416 26 152 1.6 1.6 0.00 0.00 0.00 38 1239.7
20260505185911 26 104 0.0 1.6 0.00 0.00 0.00 37 1239.7
20260505185409 26 220 1.6 3.2 0.00 0.00 0.00 37 1239.7
20260505184905 25 150 1.6 3.2 0.00 0.00 0.00 40 1239.7
20260505184402 26 177 0.0 1.6 0.00 0.00 0.00 37 1239.7
20260505183859 25 171 4.8 4.8 0.00 0.00 0.00 37 1239.7
20260505183355 26 118 3.2 3.2 0.00 0.00 0.00 36 1239.7
20260505182852 25 195 6.4 9.7 0.00 0.00 0.00 38 1239.7
20260505182349 25 100 0.0 0.0 0.00 0.00 0.00 39 1239.7
20260505181845 25 186 6.4 6.4 0.00 0.00 0.00 38 1239.7
20260505181343 26 88 0.0 0.0 0.00 0.00 0.00 39 1239.7
20260505180839 26 182 4.8 4.8 0.00 0.00 0.00 37 1239.7
20260505180336 26 178 0.0 1.6 0.00 0.00 0.00 40 1239.7
20260505175833 25 123 3.2 3.2 0.00 0.00 0.00 39 1239.7
20260505175329 25 135 1.6 1.6 0.00 0.00 0.00 40 1239.7
20260505174826 25 211 6.4 9.7 0.00 0.00 0.00 37 1239.7
20260505174323 25 186 3.2 3.2 0.00 0.00 0.00 39 1239.7
20260505173819 25 185 3.2 3.2 0.00 0.00 0.00 40 1239.7
20260505173315 25 160 4.8 4.8 0.00 0.00 0.00 39 1239.7
20260505172812 25 183 6.4 6.4 0.00 0.00 0.00 41 1239.7
20260505172310 25 125 4.8 4.8 0.00 0.00 0.00 40 1239.7
20260505171805 25 177 1.6 4.8 0.00 0.00 0.00 40 1239.7
20260505171302 25 121 1.6 3.2 0.00 0.00 0.00 41 1239.7
20260505170758 25 117 1.6 1.6 0.00 0.00 0.00 41 1239.7
20260505170256 25 141 1.6 3.2 0.00 0.00 0.00 40 1239.7
20260505165755 25 66 0.0 0.0 0.00 0.00 0.00 41 1239.7
20260505165251 24 85 1.6 1.6 0.00 0.00 0.00 43 1239.7
20260505164747 24 123 3.2 3.2 0.00 0.00 0.00 48 1239.7
20260505164244 24 198 4.8 4.8 0.00 0.00 0.00 41 1239.7
20260505163743 24 214 4.8 4.8 0.00 0.00 0.00 42 1239.7
20260505163241 25 134 0.0 1.6 0.00 0.00 0.00 43 1239.7
20260505162738 23 131 1.6 3.2 0.00 0.00 0.00 44 1239.7
20260505162235 23 83 0.0 1.6 0.00 0.00 0.00 42 1239.7
20260505161732 23 193 6.4 9.7 0.00 0.00 0.00 42 1239.7
20260505161230 23 168 6.4 6.4 0.00 0.00 0.00 45 1239.7
20260505160727 23 126 3.2 3.2 0.00 0.00 0.00 46 1239.7
20260505160225 23 320 4.8 6.4 0.00 0.00 0.00 45 1239.7
20260505153203 22 128 3.2 3.2 0.00 0.00 0.00 46 1239.7
20260505152700 22 179 4.8 6.4 0.00 0.00 0.00 47 1239.7
20260505152156 22 158 3.2 4.8 0.00 0.00 0.00 49 1239.7
20260505151651 21 166 1.6 3.2 0.00 0.00 0.00 50 1239.7
20260505151149 21 171 3.2 3.2 0.00 0.00 0.00 49 1239.7
20260505150645 21 109 0.0 0.0 0.00 0.00 0.00 52 1239.7
20260505150142 21 168 3.2 4.8 0.00 0.00 0.00 49 1239.7
20260505140610 17 91 0.0 0.0 0.00 0.00 0.00 67 1239.7
20260505140108 17 119 0.0 0.0 0.00 0.00 0.00 68 1239.7